Location: Auckland
(36.8670°S, 174.7670°E)
Time: 02:05:40
(UTC+12:00)

Tiros 1 despin weight - Pass Details

Date: 22 July 2019
Orbit: 594 x 642 km, 48.2° (Epoch: 22 August)

Event Time Altitude Azimuth Distance (km) Brightness Sun altitude
Rises 02:14:38 0° 255° (WSW) 2,851 - -61.5°
Reaches altitude 10° 02:17:26 10° 238° (WSW) 1,953 - -61.0°
Maximum altitude 02:20:48 21° 189° (S) 1,400 - -60.4°
Drops below altitude 10° 02:24:13 10° 139° (SE) 1,971 - -59.8°
Sets 02:27:02 0° 122° (ESE) 2,884 - -59.2°
